User: anonymous   Login
Location: Bagnara
(41.0500°N, 14.7833°E)
Time: 10:46:52
(UTC+00:00)
Language:

Cosmos 1271 Rocket - Orbit

View from above orbital plane
View from above orbital plane
View from above satellite
View from above satellite

Ground track
Ground track

The orbit data is extracted from the following two-line orbital elements,

1 12465U 81046B   21259.83846699  .00000457  00000-0  22679-4 0  9995
2 12465  81.2433  39.2086 0034011 167.2221 192.9878 15.15076797189379
Epoch (UTC): 16 September 2021 20:07:23
Eccentricity: 0.0034011
inclination: 81.2433°
perigee height: 497 km
apogee height: 544 km
right ascension of ascending node: 39.2086°
argument of perigee: 167.2221°
revolutions per day: 15.15076797
mean anomaly at epoch: 192.9878°
orbit number at epoch: 18937

The dashed part of the orbit path shows where the satellite is in the earth's shadow,  

DLR